Flag for Moldova Weather past 2 weeks in Tiraspol, Moldova

Now
19 °F

Sunny.


Feels Like: 9 °F
Forecast: 21 / 26 °F
Wind: 9 mph from West

Location: Chisinau International Airport

Current Time: Dec 28, 2014 at 8:51:10 AM

Latest Report: Dec 28, 2014 at 8:00 AM


Visibility: 10 mi

Pressure: 29.92 "Hg

Humidity: 79%

Dew point: 14 °F

Location of TiraspolLocation

Historic Weather in Tiraspol — Graph

°F

Tiraspol temperature yesterday

Maximum temperature yesterday: 34 °F (at 12:00 AM)
Minimum temperature yesterday: 27 °F (at 4:00 PM)
Average temperature yesterday: 29 °F

Past Weeks' High & Low Weather Summary

 TemperatureHumidityPressure
High57 °F (Dec 24, 1:00 PM)93% (Dec 14, 8:00 PM)30.24 "Hg (Dec 14, 8:00 PM)
Low18 °F (Dec 28, 7:30 AM)39% (Dec 24, 1:30 PM)29.77 "Hg (Dec 23, 4:00 AM)
Average38 °F74%30.01 "Hg
* Reported Dec 13 7:00 AM — Dec 28 7:30 AM, Tiraspol, Weather by CustomWeather, © 2014

Note: Actual official high and low records may vary slightly from our data, if they occured in-between our weather recording intervals... More about our weather records

Advertising

Tiraspol weather history for previous 24 hours

 ConditionsComfort  
Time TempWeatherWind HumidityBarometerVisibility
7:30 AM
Dec 28
18 °FPassing clouds.3 mph86%29.92 "HgN/A
7:00 AM19 °FPassing clouds.7 mph79%29.89 "HgN/A
6:30 AM19 °FPassing clouds.8 mph79%29.89 "HgN/A
5:30 AM23 °FPassing clouds.7 mph74%29.86 "HgN/A
5:00 AM23 °FPassing clouds.8 mph80%29.86 "HgN/A
4:30 AM21 °FPassing clouds.7 mph80%29.86 "HgN/A
4:00 AM23 °FPassing clouds.7 mph74%29.83 "HgN/A
3:30 AM23 °FClear.9 mph74%29.83 "Hg10 mi
3:00 AM23 °FClear.8 mph80%29.83 "Hg10 mi
2:30 AM25 °FClear.8 mph74%29.83 "Hg10 mi
2:00 AM25 °FPassing clouds.9 mph74%29.80 "HgN/A
1:30 AM25 °FPassing clouds.8 mph74%29.80 "HgN/A
1:00 AM25 °FPassing clouds.7 mph74%29.80 "HgN/A
12:30 AM27 °FPassing clouds.8 mph69%29.80 "HgN/A
12:00 AM27 °FPassing clouds.8 mph69%29.80 "HgN/A
11:30 PM
Dec 27
27 °FPassing clouds.12 mph74%29.80 "HgN/A
11:00 PM28 °FOvercast.15 mph69%29.80 "HgN/A
10:30 PM28 °FSnow flurries. Overcast.12 mph69%29.77 "HgN/A
10:00 PM28 °FSnow flurries. Overcast.13 mph69%29.77 "HgN/A
9:30 PM28 °FSnow flurries. Mostly cloudy.10 mph69%29.77 "HgN/A
9:00 PM27 °FSnow flurries. Mostly cloudy.12 mph80%29.77 "Hg5 mi
8:30 PM27 °FSnow showers. Mostly cloudy.14 mph80%29.77 "Hg2 mi
8:00 PM27 °FSnow showers. Mostly cloudy.14 mph80%29.77 "Hg2 mi
7:30 PM27 °FSnow flurries. Mostly cloudy.13 mph80%29.77 "Hg2 mi
7:00 PM27 °FSnow showers. Mostly cloudy.14 mph80%29.80 "Hg2 mi
6:30 PM27 °FSnow showers. Mostly cloudy.10 mph80%29.80 "Hg1 mi
6:00 PM27 °FSnow showers. Mostly cloudy.12 mph80%29.80 "Hg2 mi
5:30 PM27 °FSnow showers. Mostly cloudy.14 mph80%29.80 "Hg2 mi
5:00 PM27 °FSnow showers. Mostly cloudy.18 mph80%29.80 "Hg2 mi
4:30 PM27 °FSnow showers. Mostly cloudy.18 mph80%29.83 "Hg2 mi
4:00 PM27 °FSnow flurries. Mostly cloudy.16 mph80%29.83 "Hg2 mi
3:30 PM28 °FSnow showers. Mostly cloudy.16 mph74%29.83 "Hg2 mi
3:00 PM28 °FSnow flurries. Overcast.17 mph74%29.83 "Hg3 mi
2:30 PM28 °FSnow flurries. Mostly cloudy.16 mph64%29.83 "Hg3 mi
2:00 PM30 °FLight snow. Overcast.16 mph59%29.83 "HgN/A
1:30 PM30 °FOvercast.15 mph55%29.86 "HgN/A
1:00 PM30 °FLight snow. Mostly cloudy.14 mph59%29.86 "HgN/A
12:30 PM30 °FOvercast.14 mph59%29.89 "HgN/A
12:00 PM30 °FOvercast.15 mph55%29.89 "HgN/A
11:30 AM30 °FOvercast.15 mph55%29.92 "HgN/A
11:00 AM28 °FSunny.12 mph59%29.92 "Hg10 mi
10:30 AM28 °FPartly sunny.10 mph64%29.95 "HgN/A
10:00 AM28 °FOvercast.10 mph64%29.95 "HgN/A
9:30 AM28 °FPartly sunny.12 mph64%29.95 "HgN/A
9:00 AM28 °FPartly sunny.14 mph64%29.95 "HgN/A
8:30 AM28 °FPartly sunny.12 mph64%29.98 "HgN/A
8:00 AM30 °FPartly sunny.13 mph64%29.98 "HgN/A
Weather by CustomWeather, © 2014

See weather overviewHow to use our weather pages